Regional Weather Roundup
Issued by NWS

Home | Current Version | Previous Version | Text Only | Print | Product List | Glossary On
Versions: 1 2 3 4 5 6 7 8 9 10 11 12 13 14 15 16 17 18 19 20 21 22 23 24 25 26 27 28 29 30 31 32 33 34 35 36 37 38 39 40 41 42 43 44 45 46 47 48 49 50
000
ASUS45 KABQ 310310
RWRNM
WEATHER ROUNDUP FOR NEW MEXICO
NATIONAL WEATHER SERVICE ALBUQUERQUE NM
900 PM MDT WED JUL 30 2014

NOTE: "FAIR" MEANS FEW OR NO CLOUDS BELOW 12,000 FEET AGL WITH NO
       SIGNIFICANT WEATHER OR OBSTRUCTIONS TO VISION.

      THIS PRODUCT IS RELEASED AS TWO VERSIONS.  ONE VERSION NEAR
      THE TOP OF THE HOUR CONTAINING PRELIMINARY DATA FROM ALBUQUERQUE
      AND OTHER STATIONS.  A FINAL VERSION WITH ADDITIONAL DATA IS
      ISSUED ABOUT 10 MINUTES AFTER THE HOUR.

NMZ501-503-504-510>518-310400-
NORTHWEST PLATEAU/NORTHCENTRAL MOUNTAINS

CITY           SKY/WX    TMP DP  RH WIND       PRES   REMARKS
FARMINGTON     CLEAR     82  41  23 NW7       30.11R
LOS ALAMOS     MOCLDY    67  56  67 S17       30.32R
SANTA FE       PTCLDY    67  56  67 SE21G30   30.25R
TAOS           PTCLDY    64  52  63 E18       30.30R
ANGEL FIRE     CLOUDY    58  52  81 E3        30.45R

$$
NMZ402-403-502-505>509-310400-
WESTCENTRAL MOUNTAINS/SOUTHWEST MOUNTAINS

CITY           SKY/WX    TMP DP  RH WIND       PRES   REMARKS
GALLUP         PTCLDY    81  43  26 NW8       30.21R
SILVER CITY    CLOUDY    81  52  36 S21       30.18R

$$
NMZ407-409-411-412-310400-
SOUTHERN DESERTS

CITY           SKY/WX    TMP DP  RH WIND       PRES   REMARKS
LORDSBURG      FAIR      84  50  30 W20G25    30.06S
DEMING         LGT RAIN  79  58  48 VRB3      30.08F
LAS CRUCES     CLOUDY    84  50  30 W14G24    30.07R
HOLLOMAN AFB   PTCLDY    90  54  29 W12       30.02R
ALAMOGORDO     PTCLDY    86  54  32 CALM      30.03R
T OR C         HVY RAIN  82  62  50 NW8       30.10R

$$
NMZ519>523-310400-
CENTRAL VALLEYS/CENTRAL HIGHLANDS

CITY           SKY/WX    TMP DP  RH WIND       PRES   REMARKS
ALBUQUERQUE    MOCLDY    72  57  59 E32G44    30.15R
DOUBLE EAGLE   MOCLDY    75  61  60 SE17G25   30.19R
CLINES CORNERS CLOUDY    61  57  87 E10       30.37R
BELEN          CLOUDY    81  61  51 E14       30.12R
SOCORRO        FAIR      83  49  30 S3        30.08R

$$
NMZ524>526-539-540-310400-
SOUTHCENTRAL MOUNTAINS

CITY           SKY/WX    TMP DP  RH WIND       PRES   REMARKS
RUIDOSO        CLEAR     66  59  77 SE8       30.34S

$$
NMZ527>531-310400-
NORTHEAST HIGHLANDS/NORTHEAST PLAINS

CITY           SKY/WX    TMP DP  RH WIND       PRES   REMARKS
LAS VEGAS      CLOUDY    58  56  93 E12       30.36R
RATON          CLOUDY    61  54  77 E9        30.34R
CLAYTON        CLOUDY    61  56  83 NE15      30.30R

$$
NMZ532>537-310400-
EASTCENTRAL PLAINS

CITY           SKY/WX    TMP DP  RH WIND       PRES   REMARKS
TUCUMCARI      CLOUDY    69  56  62 NE21G28   30.21R
CANNON AFB     CLEAR     67  60  80 NE15G23   30.21R
CLOVIS AIRPORT NOT AVBL

$$
NMZ028-029-538-310400-
SOUTHEAST PLAINS

CITY           SKY/WX    TMP DP  RH WIND       PRES   REMARKS
ROSWELL        MOCLDY    79  62  56 NE14G26   30.10R
ARTESIA        CLOUDY    86  61  42 NE13      30.07R
CARLSBAD       TSTM      74  66  76 SE15G22   30.09R
HOBBS          CLOUDY    82  61  47 NE15G22   30.10R


$$


USA.gov is the U.S. government's official web portal to all federal, state and local government web resources and services.